• Processing (Info)

  • MPEC 2010-R96 : 2010 RO80

    The following Minor Planet Electronic Circular may be linked-to from your own Web pages, but must not otherwise be redistributed electronically.

    A form allowing access to any MPEC is at the bottom of this page.


    Read MPEC 2010-R95 Read MPEC 2010-R97


    M.P.E.C. 2010-R96                                Issued 2010 Sept. 12, 19:07 UT
    
         The Minor Planet Electronic Circulars contain information on unusual
             minor planets and routine data on comets.  They are published
       on behalf of Commission 20 of the International Astronomical Union by the
              Minor Planet Center, Smithsonian Astrophysical Observatory,
                              Cambridge, MA 02138, U.S.A.
    
                 Prepared using the Tamkin Foundation Computer Network
    
                                  MPC@CFA.HARVARD.EDU
           URL https://www.minorplanetcenter.org/iau/mpc.html  ISSN 1523-6714
    
                                       2010 RO80
    
    Observations:
         K10R80O* C2010 09 11.34187 23 56 09.92 +03 03 45.9          19.4 V ER096703
         K10R80O  C2010 09 11.34855 23 56 03.84 +03 06 21.7          18.7 V ER096703
         K10R80O  C2010 09 11.35527 23 55 57.72 +03 08 58.0          19.0 V ER096703
         K10R80O  C2010 09 11.36194 23 55 51.74 +03 11 33.9          19.4 V ER096703
         K10R80O  C2010 09 11.43715 23 54 44.02 +03 40 51.7          19.5 V ER096703
         K10R80O  C2010 09 11.43760 23 54 43.63 +03 41 01.3          19.4 V ER096703
         K10R80O  C2010 09 11.43804 23 54 43.12 +03 41 13.6          18.6 V ER096703
         K10R80O  C2010 09 11.43851 23 54 42.80 +03 41 21.8          18.6 V ER096703
         K10R80O  C2010 09 11.68788 23 51 10.77 +05 20 03.5          18.9 R ER096300
         K10R80O  C2010 09 11.69106 23 51 07.87 +05 21 16.6          18.7 R ER096300
         K10R80O  C2010 09 11.69211 23 51 06.91 +05 21 42.6          19.2 R ER096300
         K10R80O  C2010 09 11.69316 23 51 05.99 +05 22 05.5          18.4 R ER096300
         K10R80O KC2010 09 11.84564 23 48 58.63 +06 22 53.6          19.0 R ER096113
         K10R80O KC2010 09 11.85275 23 48 52.06 +06 25 46.7          18.9 R ER096113
         K10R80O KC2010 09 11.85999 23 48 45.41 +06 28 42.5          18.9 R ER096113
         K10R80O KC2010 09 11.91746 23 47 52.50 +06 52 17.9          19.0 R ER096204
         K10R80O KC2010 09 11.92478 23 47 45.48 +06 55 13.9          18.8 V ER096151
         K10R80O FC2010 09 11.92500 23 47 45.36 +06 55 22.8                 ER096204
         K10R80O KC2010 09 11.93928 23 47 31.81 +07 01 07.8          18.9 V ER096151
         K10R80O KC2010 09 11.94640 23 47 26.03 +07 03 55.2                 ER096J95
         K10R80O KC2010 09 11.94996 23 47 22.71 +07 05 21.9                 ER096J95
         K10R80O KC2010 09 11.95347 23 47 19.39 +07 06 48.7          19.7 R ER096J95
         K10R80O KC2010 09 11.97188 23 47 00.28 +07 14 23.1          18.6 R ER096113
         K10R80O KC2010 09 11.97894 23 46 53.60 +07 17 16.9          19.0 R ER096113
         K10R80O KC2010 09 11.98598 23 46 46.90 +07 20 09.8          19.2 R ER096113
         K10R80O KC2010 09 12.29558823 41 59.47 +09 28 50.2          19.3 V ER096H21
         K10R80O KC2010 09 12.29839523 41 56.70 +09 30 00.5          19.3 V ER096H21
         K10R80O  C2010 09 12.29857 23 41 59.35 +09 30 20.6          19.6   ER096704
         K10R80O KC2010 09 12.30119823 41 53.89 +09 31 10.9          18.9 V ER096H21
         K10R80O KC2010 09 12.30409523 41 51.04 +09 32 23.6          19.2 V ER096H21
         K10R80O  C2010 09 12.31093 23 41 46.96 +09 35 31.2          19.3   ER096704
         K10R80O  C2010 09 12.32327 23 41 34.67 +09 40 41.8          20.1   ER096704
         K10R80O  C2010 09 12.33560 23 41 22.33 +09 45 51.8          19.4   ER096704
         K10R80O  C2010 09 12.34794 23 41 09.93 +09 51 01.5          19.8   ER096704
    
    Observer details:
    113 Volkssternwarte Drebach, Schoenbrunn.  Observer A. Knofel.  0.5-m f/5
        reflector + CCD.
    151 Eschenberg Observatory, Winterthur.  Observer M. Griesser.  0.40-m f/5.9
        Hypergraph + CCD.
    204 Schiaparelli Observatory.  Observer L. Buzzi.  0.38-m f/6.8 reflector
        + CCD.
    300 Bisei Spaceguard Center--BATTeRS.  Observers K. Nishiyama, T. Sakamoto.
        1.0-m f/3.0 reflector + CCD.
    703 Catalina Sky Survey.  Observer R. A. Kowalski.  Measurers J. D. Ahern,
        E. C. Beshore, A. Boattini, G. J. Garradd, A. R. Gibbs, A. D. Grauer,
        R. E. Hill, R. A. Kowalski, S. M. Larson, R. H. McNaught.  0.68-m Schmidt
        + CCD.
    704 Lincoln Laboratory ETS, New Mexico.  Observers M. Blythe, G. Spitz,
        R. Brungard, J. Paige, P. Festler.  1.0-m f/2.15 reflector + CCD.
    H21 Astronomical Research Observatory, Westfield.  Observer R. Holmes.
        Measurer S. Foglia.  0.61-m f/4.0 astrograph + CCD.
    J95 Great Shefford.  Observer P. Birtwhistle.  0.40-m f/6.0 Schmidt-Cassegrain
        + CCD.
    
    Orbital elements:
    2010 RO80                                                Earth MOID = 0.0516 AU
    Epoch 2010 July 23.0 TT = JDT 2455400.5                 MPC
    M 272.66966              (2000.0)            P               Q
    n   0.76458499     Peri.   69.57216     +0.51223869     -0.85522592
    a   1.1844558      Node   348.58756     +0.56147804     +0.40284752
    e   0.2011176      Incl.   23.44963     +0.64988763     +0.32604063
    P   1.29           H   24.6           G   0.15           U   7
    Residuals in seconds of arc
    100911 703  1.2+  0.7-    100911 113  0.1-  0.1+    100911 113  0.2+  0.2+
    100911 703  0.2+  0.2-    100911 113  0.3-  0.1-    100912 H21  0.3+  0.2-
    100911 703  0.8-  0.4-    100911 113  0.3+  0.9-    100912 H21  0.5+  0.3-
    100911 703  0.3-  0.2+    100911 204  0.5-  0.1-    100912 704  0.1+  0.2+
    100911 703  0.2-  0.6+    100911 151  0.8-  0.0     100912 H21  0.1+  0.2-
    100911 703  0.0   0.3-    100911 204  0.8-  0.0     100912 H21  0.5+  0.1-
    100911 703  1.8-  1.7+    100911 151  0.3-  1.6-    100912 704  0.5-  0.2+
    100911 703  0.2-  1.1-    100911 J95  0.3-  0.3+    100912 704  0.2+  0.6+
    100911 300  0.1-  2.7+    100911 J95  0.2+  0.4-    100912 704  0.3+  0.6+
    100911 300  0.8+  0.5-    100911 J95  0.0   0.2+    100912 704  0.3-  0.1-
    100911 300  1.1+  0.3+    100911 113  0.2-  0.0
    100911 300  2.0+  2.0-    100911 113  0.3+  0.4+
    
    Ephemeris:
    2010 RO80                a,e,i = 1.18, 0.20, 23                  q = 0.9462
    Date    TT    R. A. (2000) Decl.     Delta      r     Elong.  Phase     V
    2010 09 11    00 00.89   +00 54.6    0.0561   1.062   167.4    11.9    19.2
    2010 09 13    23 30.59   +14 29.8    0.0519   1.056   161.4    17.7    19.2
    2010 09 15    22 53.24   +28 48.5    0.0520   1.050   146.8    31.7    19.6
    2010 09 17    22 09.12   +41 09.1    0.0564   1.044   132.0    45.7    20.2
    2010 09 19    21 20.51   +50 01.4    0.0641   1.038   119.8    57.1    20.8
    2010 09 21    20 31.52   +55 35.0    0.0740   1.032   110.5    65.7    21.3
    2010 09 23    19 46.40   +58 43.9    0.0853   1.027   103.5    71.9    21.8
    2010 09 25    19 07.63   +60 21.1    0.0975   1.021    98.1    76.5    22.3
    2010 09 27    18 35.70   +61 04.7    0.110    1.016    94.0    79.8    22.6
    2010 09 29    18 09.83   +61 18.5    0.123    1.011    90.7    82.3    23.0
    2010 10 01    17 48.91   +61 16.0    0.136    1.006    88.0    84.2    23.2
    
    Carl W. Hergenrother         (C) Copyright 2010 MPC           M.P.E.C. 2010-R96
    

    Read MPEC 2010-R95 Read MPEC 2010-R97


    MPEC number:

    Enter an MPEC number in one of the following forms:

    • 1997-B01 (the full form)
    • J97B01 (the packed version of the full form)
    • B01 (the abbreviated form)